| time (UTC) | temp F | wind direction | speed MPH | gust MPH | rain 1hr in | rain 24hr in | rain mn in | humidity % | barometer mb |
| 20260504045845 | 69 | 154 | 0.0 | 3.0 | 0.00 | 0.00 | 0.00 | 62 | 1019.1 |
| 20260504044846 | 69 | 182 | 0.0 | 4.0 | 0.00 | 0.00 | 0.00 | 61 | 1019.2 |
| 20260504043846 | 70 | 179 | 0.0 | 0.0 | 0.00 | 0.00 | 0.00 | 61 | 1019.3 |
| 20260504042830 | 70 | 227 | 0.0 | 2.0 | 0.00 | 0.00 | 0.00 | 61 | 1019.1 |
| 20260504041831 | 70 | 222 | 0.0 | 2.0 | 0.00 | 0.00 | 0.00 | 61 | 1019.1 |
| 20260504040830 | 71 | 101 | 0.0 | 3.0 | 0.00 | 0.00 | 0.00 | 60 | 1019.1 |
| 20260504035830 | 71 | 173 | 0.0 | 2.0 | 0.00 | 0.00 | 0.00 | 60 | 1019.2 |
| 20260504034830 | 71 | 217 | 0.0 | 3.0 | 0.00 | 0.00 | 0.00 | 59 | 1019.2 |
| 20260504033830 | 72 | 150 | 2.0 | 4.0 | 0.00 | 0.00 | 0.00 | 59 | 1019.2 |
| 20260504032830 | 72 | 218 | 1.0 | 3.0 | 0.00 | 0.00 | 0.00 | 58 | 1019.2 |
| 20260504031830 | 73 | 181 | 0.0 | 2.0 | 0.00 | 0.00 | 0.00 | 57 | 1019.2 |
| 20260504030830 | 73 | 172 | 0.0 | 1.0 | 0.00 | 0.00 | 0.00 | 56 | 1019.2 |
| 20260504025830 | 73 | 192 | 0.0 | 6.0 | 0.00 | 0.00 | 0.00 | 56 | 1018.9 |
| 20260504024830 | 74 | 178 | 2.0 | 6.0 | 0.00 | 0.00 | 0.00 | 54 | 1018.9 |
| 20260504023830 | 74 | 168 | 2.0 | 5.0 | 0.00 | 0.00 | 0.00 | 54 | 1018.8 |
| 20260504022830 | 74 | 126 | 1.0 | 4.0 | 0.00 | 0.00 | 0.00 | 53 | 1018.8 |
| 20260504021830 | 75 | 117 | 2.0 | 5.0 | 0.00 | 0.00 | 0.00 | 51 | 1018.6 |
| 20260504020830 | 76 | 153 | 4.0 | 5.0 | 0.00 | 0.00 | 0.00 | 51 | 1018.7 |
| 20260504015829 | 76 | 128 | 2.0 | 8.0 | 0.00 | 0.00 | 0.00 | 50 | 1018.6 |
| 20260504014829 | 77 | 171 | 2.0 | 7.0 | 0.00 | 0.00 | 0.00 | 49 | 1018.5 |
| 20260504013829 | 78 | 134 | 2.0 | 5.0 | 0.00 | 0.00 | 0.00 | 48 | 1018.4 |
| 20260504012829 | 78 | 169 | 2.0 | 6.0 | 0.00 | 0.00 | 0.00 | 47 | 1018.4 |
| 20260504011829 | 79 | 144 | 1.0 | 5.0 | 0.00 | 0.00 | 0.00 | 47 | 1018.3 |
| 20260504010829 | 80 | 92 | 1.0 | 3.0 | 0.00 | 0.00 | 0.00 | 46 | 1018.2 |
| 20260504005829 | 80 | 146 | 1.0 | 5.0 | 0.00 | 0.00 | 0.00 | 44 | 1018.2 |
| 20260504004829 | 81 | 144 | 1.0 | 5.0 | 0.00 | 0.00 | 0.00 | 42 | 1018.2 |
| 20260504003829 | 82 | 173 | 3.0 | 5.0 | 0.00 | 0.00 | 0.00 | 42 | 1018.3 |
| 20260504002828 | 83 | 128 | 3.0 | 5.0 | 0.00 | 0.00 | 0.00 | 41 | 1018.4 |
| 20260504001828 | 84 | 95 | 3.0 | 5.0 | 0.00 | 0.00 | 0.00 | 41 | 1018.4 |
| 20260504000828 | 84 | 163 | 4.0 | 7.0 | 0.00 | 0.00 | 0.00 | 39 | 1018.5 |
| 20260503235828 | 85 | 136 | 1.0 | 8.0 | 0.00 | 0.00 | 0.00 | 39 | 1018.6 |
| 20260503234828 | 86 | 136 | 2.0 | 7.0 | 0.00 | 0.00 | 0.00 | 37 | 1018.5 |
| 20260503233828 | 86 | 149 | 2.0 | 8.0 | 0.00 | 0.00 | 0.00 | 39 | 1018.5 |
| 20260503232828 | 86 | 109 | 2.0 | 7.0 | 0.00 | 0.00 | 0.00 | 38 | 1018.5 |
| 20260503231828 | 86 | 194 | 2.0 | 6.0 | 0.00 | 0.00 | 0.00 | 38 | 1018.6 |
| 20260503230828 | 87 | 145 | 2.0 | 6.0 | 0.00 | 0.00 | 0.00 | 39 | 1018.7 |
| 20260503225828 | 87 | 130 | 3.0 | 5.0 | 0.00 | 0.00 | 0.00 | 37 | 1018.7 |
| 20260503224828 | 88 | 133 | 1.0 | 3.0 | 0.00 | 0.00 | 0.00 | 38 | 1018.8 |
| 20260503223828 | 87 | 113 | 3.0 | 4.0 | 0.00 | 0.00 | 0.00 | 39 | 1018.9 |
| 20260503222828 | 87 | 101 | 0.0 | 6.0 | 0.00 | 0.00 | 0.00 | 42 | 1019.0 |
| 20260503221827 | 86 | 203 | 1.0 | 7.0 | 0.00 | 0.00 | 0.00 | 43 | 1019.2 |
| 20260503220827 | 85 | 125 | 2.0 | 4.0 | 0.00 | 0.00 | 0.00 | 42 | 1019.4 |
| 20260503215828 | 86 | 97 | 3.0 | 6.0 | 0.00 | 0.00 | 0.00 | 40 | 1019.4 |
| 20260503214827 | 87 | 92 | 4.0 | 6.0 | 0.00 | 0.00 | 0.00 | 39 | 1019.4 |
| 20260503213827 | 87 | 97 | 3.0 | 5.0 | 0.00 | 0.00 | 0.00 | 40 | 1019.5 |
| 20260503212827 | 88 | 111 | 4.0 | 6.0 | 0.00 | 0.00 | 0.00 | 40 | 1019.8 |
| 20260503211827 | 87 | 150 | 3.0 | 5.0 | 0.00 | 0.00 | 0.00 | 40 | 1019.9 |
| 20260503210827 | 86 | 163 | 0.0 | 6.0 | 0.00 | 0.00 | 0.00 | 43 | 1020.0 |
| 20260503205827 | 85 | 140 | 1.0 | 4.0 | 0.00 | 0.00 | 0.00 | 43 | 1020.0 |
| 20260503204827 | 84 | 162 | 0.0 | 2.0 | 0.00 | 0.00 | 0.00 | 43 | 1020.2 |
| 20260503203827 | 85 | 162 | 0.0 | 1.0 | 0.00 | 0.00 | 0.00 | 43 | 1020.5 |
| 20260503202827 | 85 | 162 | 1.0 | 4.0 | 0.00 | 0.00 | 0.00 | 43 | 1020.7 |
| 20260503201827 | 85 | 204 | 0.0 | 2.0 | 0.00 | 0.00 | 0.00 | 43 | 1020.7 |
| 20260503200827 | 85 | 153 | 1.0 | 2.0 | 0.00 | 0.00 | 0.00 | 45 | 1021.0 |
| 20260503195827 | 84 | 210 | 0.0 | 4.0 | 0.00 | 0.00 | 0.00 | 45 | 1021.1 |
| 20260503194827 | 83 | 121 | 1.0 | 3.0 | 0.00 | 0.00 | 0.00 | 50 | 1021.3 |
| 20260503193826 | 82 | 259 | 1.0 | 4.0 | 0.00 | 0.00 | 0.00 | 50 | 1021.5 |
| 20260503192826 | 81 | 175 | 1.0 | 3.0 | 0.00 | 0.00 | 0.00 | 48 | 1021.7 |
| 20260503191826 | 80 | 248 | 0.0 | 3.0 | 0.00 | 0.00 | 0.00 | 48 | 1021.8 |
| 20260503190826 | 80 | 179 | 0.0 | 6.0 | 0.00 | 0.00 | 0.00 | 51 | 1022.0 |
| 20260503185826 | 79 | 193 | 0.0 | 5.0 | 0.00 | 0.00 | 0.00 | 51 | 1022.0 |
| 20260503184826 | 79 | 146 | 0.0 | 3.0 | 0.00 | 0.00 | 0.00 | 51 | 1022.1 |
| 20260503183826 | 78 | 109 | 0.0 | 4.0 | 0.00 | 0.00 | 0.00 | 51 | 1022.2 |
| 20260503182826 | 78 | 71 | 0.0 | 4.0 | 0.00 | 0.00 | 0.00 | 54 | 1022.4 |
| 20260503181826 | 78 | 128 | 0.0 | 6.0 | 0.00 | 0.00 | 0.00 | 52 | 1022.6 |
| 20260503180825 | 77 | 87 | 1.0 | 5.0 | 0.00 | 0.00 | 0.00 | 57 | 1022.7 |
| 20260503175825 | 76 | 76 | 0.0 | 8.0 | 0.00 | 0.00 | 0.00 | 57 | 1022.9 |
| 20260503174825 | 76 | 204 | 0.0 | 5.0 | 0.00 | 0.00 | 0.00 | 58 | 1023.2 |
| 20260503173826 | 75 | 166 | 1.0 | 3.0 | 0.00 | 0.00 | 0.00 | 59 | 1023.4 |
| 20260503172825 | 75 | 196 | 0.0 | 6.0 | 0.00 | 0.00 | 0.00 | 57 | 1023.5 |
| 20260503171825 | 74 | 198 | 0.0 | 3.0 | 0.00 | 0.00 | 0.00 | 59 | 1023.5 |
| 20260503170825 | 74 | 121 | 0.0 | 3.0 | 0.00 | 0.00 | 0.00 | 58 | 1023.6 |
| 20260503150824 | 65 | 155 | 1.0 | 5.0 | 0.00 | 0.00 | 0.00 | 75 | 1023.6 |
| 20260503130823 | 58 | 77 | 0.0 | 0.0 | 0.00 | 0.00 | 0.00 | 85 | 1022.9 |
| 20260503110822 | 57 | 300 | 0.0 | 0.0 | 0.00 | 0.00 | 0.00 | 84 | 1022.0 |
| 20260503080821 | 60 | 300 | 0.0 | 0.0 | 0.00 | 0.00 | 0.00 | 81 | 1021.7 |
| 20260503072821 | 61 | 300 | 0.0 | 0.0 | 0.00 | 0.00 | 0.00 | 81 | 1021.9 |
| 20260503071821 | 61 | 300 | 0.0 | 0.0 | 0.00 | 0.00 | 0.00 | 80 | 1022.0 |
| 20260503070820 | 61 | 300 | 0.0 | 0.0 | 0.00 | 0.00 | 0.00 | 80 | 1022.0 |